Wind_Speed
4 2 2 3 7 7 4 11 13 6 18 15 13 14 10 19 15 18 19 17 14 15 15 18 22 23 16 13 11 8 9 10 15 15 14 13 11 14 10 14 10 11 13 16
5 2 3 2 6 6 8 12 13 12 11 12 7 13 19 21 21 19 25 26 22 23 22 20 22 21 14 13 7 9 9 11 10 13 14 14 13 20 18 17 19 18 15 15
3 3 9 6 7 6 9 14 17 3 7 6 5 11 17 17 17 17 25 27 27 27 28 25 19 19 14 10 4 9 8 10 10 11 12 15 18 17 16 17 16 16 14 17
3 5 5 6 3 7 7 5 8 10 12 4 5 7 12 11 18 23 28 21 21 28 29 25 21 21 6 5 2 7 9 7 9 9 10 12 13 13 14 13 12 15 14 15
5 8 11 13 20 10 12 17 14 11 5 4 4 10 13 13 23 27 16 29 20 28 30 25 23 10 11 9 2 7 6 3 5 10 12 12 13 12 10 10 11 16 20 21
9 15 15 13 14 6 7 13 7 6 7 6 9 9 10 16 9 10 21 27 29 37 33 24 20 26 18 11 6 10 8 9 10 9 9 10 8 8 7 8 10 16 21 23
14 18 11 8 11 11 14 11 0 3 3 8 10 9 14 14 12 14 25 18 19 29 26 29 27 23 27 14 10 7 9 13 14 13 12 11 7 9 11 8 11 15 22 26
21 17 14 12 18 19 11 7 7 6 5 4 7 10 8 12 15 12 8 16 13 20 9 27 35 26 18 21 16 15 13 16 16 16 17 15 12 12 12 15 20 25 26 25
22 18 8 6 11 7 6 9 13 20 16 4 8 11 13 14 14 14 12 14 14 11 18 20 33 30 27 30 23 21 18 20 23 21 20 17 17 18 19 21 24 26 20 21
22 8 2 4 8 11 15 20 14 13 2 4 6 6 13 9 17 20 18 10 9 12 12 23 26 26 27 29 31 28 25 24 25 20 20 20 23 23 26 27 28 24 22 18
3 6 4 3 6 8 10 20 15 12 17 6 2 4 1 4 12 22 21 16 15 13 14 21 25 28 28 29 33 32 26 25 23 20 22 24 28 30 30 30 26 21 18 16
3 2 4 6 7 8 8 15 18 12 16 5 3 3 2 8 10 16 16 17 16 12 16 16 19 23 25 27 26 27 25 23 23 25 28 29 32 32 23 16 16 18 17 16
12 7 8 15 22 20 20 22 19 18 13 7 6 5 1 9 14 13 12 10 8 9 11 14 18 17 17 20 23 24 26 26 28 29 31 28 18 12 12 15 18 18 16 14
11 7 8 7 14 15 17 21 18 15 16 17 12 7 5 7 11 10 11 10 11 15 16 17 18 23 22 21 23 27 28 29 21 15 12 11 12 12 14 16 15 14 12 10
6 7 11 12 13 16 18 19 21 23 20 17 23 16 13 10 11 14 17 17 17 17 15 14 14 13 13 16 15 11 8 8 8 9 11 12 13 14 14 12 10 10 10 11
11 13 16 19 18 21 27 28 29 32 24 24 21 15 15 19 17 17 15 16 16 16 15 11 4 5 6 5 6 6 6 7 10 11 12 13 14 13 11 10 11 12 13 14
20 25 23 26 22 23 22 27 23 25 18 15 12 16 10 15 18 18 19 20 19 21 18 13 15 12 10 8 6 8 9 10 12 11 11 10 10 11 12 12 13 14 16 17
22 20 23 22 19 5 22 17 21 11 5 9 6 4 8 5 10 12 16 21 22 22 25 26 18 13 13 14 12 9 10 11 12 10 11 12 13 14 15 14 15 16 13 10
13 16 17 6 7 14 17 13 6 12 5 1 4 4 3 3 5 12 11 16 16 15 10 14 16 16 13 11 9 10 11 9 8 9 11 13 14 13 12 11 10 8 7 8
18 14 13 10 10 4 6 8 5 8 6 3 7 8 7 14 11 7 5 6 14 13 17 18 12 12 10 8 10 10 8 6 6 9 9 9 9 9 8 8 7 6 7 6
8 12 13 15 13 5 9 11 11 11 8 10 12 6 3 3 3 7 3 4 11 17 17 14 12 8 6 8 9 8 6 6 8 5 3 4 5 6 7 6 6 7 7 8
11 11 9 7 5 8 10 13 10 11 8 10 7 5 3 4 3 5 6 9 11 14 12 10 11 9 9 8 6 5 4 6 8 7 4 5 6 7 8 7 7 8 8 8
14 14 17 12 9 13 19 11 12 23 20 23 15 4 4 9 8 4 4 9 14 14 13 9 10 13 9 7 8 7 6 5 7 6 5 6 7 6 5 5 6 5 5 6
19 17 16 16 20 21 24 26 10 9 17 18 4 4 9 9 8 4 3 3 8 9 10 8 13 15 14 11 11 9 6 5 7 6 5 6 6 6 5 5 5 6 6 6
20 17 16 14 17 13 15 15 10 12 10 9 13 15 12 12 10 7 6 6 10 11 14 10 14 15 15 16 13 11 8 9 8 8 8 8 6 6 7 8 8 7 6 5
25 24 18 13 12 16 16 18 20 16 10 10 15 13 11 10 13 9 9 9 8 7 10 14 15 15 17 17 14 12 11 11 8 8 9 9 9 8 8 8 7 6 5 4
Wind_Direction
223 314 307 179 166 327 262 238 230 209 211 278 279 272 250 216 220 221 233 234 227 225 225 233 257 271 288 304 251 229 224 218 199 200 204 204 197 200 230 204 232 246 250 240
246 252 206 98 332 282 241 234 248 250 258 265 297 246 220 215 237 239 225 227 232 223 229 239 254 269 296 308 255 231 224 202 209 201 200 209 191 207 214 209 213 234 242 247
118 98 136 358 25 55 231 255 284 169 205 219 248 260 233 250 241 235 229 234 242 222 225 242 259 266 287 313 252 241 236 218 199 204 200 206 215 225 219 211 229 252 263 269
81 159 244 256 273 61 259 276 280 265 219 155 326 270 231 258 248 238 235 239 231 229 225 234 261 261 262 332 208 219 252 231 215 217 225 231 238 244 247 255 270 269 269 276
309 341 323 323 315 286 307 316 305 282 253 218 250 245 256 274 257 262 236 221 241 244 226 222 240 267 248 239 204 159 177 170 209 202 221 240 252 268 282 295 301 301 280 279
329 294 303 314 313 315 276 338 285 261 224 240 260 250 279 263 273 230 203 212 200 206 213 226 231 258 255 247 262 172 194 217 230 240 251 268 279 274 265 258 259 260 267 272
311 320 301 302 286 289 287 283 68 290 186 229 282 229 264 282 254 235 212 214 213 220 210 222 225 254 249 249 255 252 218 230 246 268 261 257 274 276 266 260 267 273 287 286
270 281 285 294 301 312 295 298 214 206 218 236 194 228 245 241 232 222 228 232 247 297 186 208 221 231 245 249 253 256 232 244 259 257 253 247 254 273 280 285 283 285 289 286
255 252 268 311 336 277 315 275 298 253 289 183 199 238 258 233 213 218 187 237 236 176 155 199 211 216 230 238 246 259 255 258 255 253 255 269 277 288 291 288 289 290 283 281
266 245 223 306 326 318 298 296 286 275 258 274 244 277 259 264 206 184 209 220 182 175 203 211 204 217 228 235 239 246 255 254 255 255 267 277 283 285 284 285 287 275 276 278
215 203 157 243 278 337 37 37 12 302 262 230 202 224 43 230 217 197 217 230 194 202 210 223 220 228 236 244 243 242 242 246 255 266 272 276 283 286 286 285 282 271 274 280
332 278 318 299 280 297 277 358 2 10 334 346 351 258 130 154 178 199 232 256 259 250 225 225 228 226 229 231 231 237 244 247 253 257 266 273 278 281 279 274 263 270 272 284
322 304 314 319 300 279 309 321 331 332 332 327 21 335 337 171 189 207 228 245 247 226 248 220 220 233 238 240 243 244 247 251 258 262 266 271 262 261 264 264 268 270 279 286
315 327 330 293 300 315 319 312 324 333 310 315 289 287 253 253 221 218 205 212 219 232 238 231 220 220 234 238 247 253 258 259 259 244 244 256 266 265 266 269 269 274 277 280
359 354 338 322 310 312 313 309 311 324 325 314 309 266 263 250 232 214 206 211 218 224 227 231 236 241 239 243 241 237 226 219 227 241 248 253 259 264 268 271 275 280 286 287
300 312 311 310 310 308 309 307 293 308 302 314 309 277 254 215 205 195 208 223 233 225 234 235 275 292 269 236 205 199 216 237 244 242 248 255 255 256 260 266 277 283 282 284
290 305 302 297 301 298 301 310 318 311 309 307 307 276 253 209 208 210 225 237 248 245 234 210 233 220 219 220 240 250 251 257 252 248 247 241 244 249 257 265 269 275 283 287
291 290 296 305 298 281 303 315 316 278 354 25 359 66 154 201 238 266 273 268 257 254 250 247 243 230 226 233 232 241 248 246 246 246 242 250 252 253 258 263 270 277 283 282
328 297 284 282 295 299 306 323 358 314 286 304 49 44 192 254 270 328 286 260 250 233 205 215 190 217 228 222 227 244 243 242 251 260 263 261 260 264 269 271 270 271 277 279
310 298 282 271 294 241 313 293 284 292 232 209 278 285 294 263 292 317 352 260 220 227 178 190 222 211 215 224 229 234 239 252 280 284 290 290 280 271 264 256 250 255 297 300
299 312 306 263 280 261 279 279 267 255 267 233 247 276 320 314 331 293 271 182 155 194 187 201 212 209 225 235 232 236 248 299 317 317 308 303 290 268 260 258 266 284 301 293
305 321 311 292 270 285 286 281 262 242 238 252 238 230 315 301 280 261 245 220 187 198 182 202 211 213 244 238 243 250 277 314 335 338 312 293 298 290 277 275 281 287 291 301
305 297 297 281 281 293 282 297 272 266 261 261 258 252 264 285 292 238 149 213 204 207 199 230 218 223 244 246 243 243 260 307 334 341 323 301 294 279 266 263 265 283 301 302
298 301 295 287 291 302 286 268 289 294 233 258 164 248 288 297 307 219 214 149 203 276 210 219 241 235 233 248 243 234 251 279 302 322 328 326 299 280 261 258 268 282 292 308
295 294 288 289 298 294 284 258 257 208 227 232 254 268 277 274 268 234 226 224 259 230 225 241 241 227 231 239 234 231 243 258 272 293 305 306 298 291 284 271 267 271 283 293
280 283 283 287 284 279 284 274 257 212 199 230 269 260 269 258 251 221 229 240 262 247 236 239 233 230 231 228 227 235 253 262 258 274 286 294 300 295 283 280 283 289 279 274
Height
3197 3198 3197 3198 3198 3198 3198 3197 3196 3193 3195 3197 3198 3198 3199 3198 3199 3200 3200 3199 3199 3198 3198 3201 3203 3205 3206 3207 3208 3210 3212 3212 3211 3210 3212 3214 3217 3218 3219 3220 3222 3223 3224 3225
3196 3196 3196 3198 3199 3198 3197 3196 3194 3195 3194 3196 3194 3194 3195 3195 3195 3192 3194 3196 3198 3199 3200 3200 3200 3202 3203 3205 3205 3206 3209 3211 3212 3211 3212 3213 3215 3214 3215 3217 3217 3217 3218 3218
3193 3196 3195 3197 3196 3197 3192 3191 3190 3193 3192 3192 3192 3194 3193 3192 3189 3186 3187 3189 3192 3197 3196 3197 3198 3199 3202 3203 3203 3203 3205 3208 3211 3211 3211 3212 3212 3212 3213 3214 3214 3214 3216 3216
3193 3193 3193 3193 3193 3194 3188 3189 3189 3192 3191 3193 3196 3194 3187 3185 3181 3179 3181 3185 3188 3193 3193 3195 3195 3197 3200 3202 3201 3201 3203 3206 3208 3210 3210 3209 3209 3209 3210 3211 3211 3212 3213 3214
3193 3191 3191 3191 3190 3191 3189 3188 3190 3192 3191 3191 3190 3187 3179 3178 3174 3176 3176 3181 3185 3188 3191 3191 3192 3194 3198 3199 3201 3199 3201 3203 3205 3206 3206 3207 3207 3207 3208 3210 3209 3209 3209 3209
3188 3189 3191 3188 3187 3188 3189 3187 3189 3189 3188 3188 3180 3178 3172 3171 3169 3171 3171 3174 3179 3182 3186 3188 3188 3192 3194 3197 3199 3200 3201 3201 3202 3202 3203 3204 3204 3204 3204 3204 3204 3203 3202 3201
3187 3188 3189 3189 3188 3186 3188 3181 3184 3186 3184 3182 3178 3177 3170 3169 3169 3168 3169 3173 3178 3182 3183 3180 3184 3190 3191 3193 3196 3196 3198 3200 3199 3199 3200 3201 3201 3199 3199 3199 3199 3198 3198 3196
3184 3186 3185 3185 3186 3185 3181 3179 3181 3182 3180 3175 3174 3172 3165 3166 3167 3168 3170 3173 3177 3178 3169 3173 3180 3184 3184 3189 3190 3188 3195 3199 3198 3196 3197 3194 3196 3196 3196 3195 3196 3195 3194 3191
3180 3181 3181 3181 3181 3182 3179 3178 3176 3176 3172 3170 3166 3166 3164 3163 3165 3168 3168 3169 3170 3168 3166 3170 3173 3176 3178 3183 3184 3185 3189 3192 3195 3193 3191 3187 3191 3191 3192 3191 3190 3189 3188 3186
3177 3177 3178 3178 3178 3179 3178 3177 3175 3172 3172 3169 3164 3163 3159 3159 3161 3167 3165 3164 3165 3164 3166 3169 3169 3171 3174 3179 3183 3184 3186 3190 3189 3189 3189 3188 3188 3188 3186 3185 3184 3183 3183 3181
3174 3175 3178 3176 3176 3176 3175 3174 3174 3170 3169 3166 3164 3160 3157 3156 3157 3161 3165 3166 3165 3167 3168 3168 3170 3173 3175 3176 3178 3181 3184 3183 3182 3182 3184 3185 3185 3182 3181 3178 3178 3176 3177 3176
3175 3175 3175 3175 3174 3173 3172 3172 3173 3172 3169 3166 3161 3159 3157 3156 3157 3160 3163 3164 3165 3166 3168 3170 3171 3172 3175 3176 3178 3180 3179 3181 3180 3181 3181 3179 3178 3175 3172 3172 3173 3173 3173 3172
3172 3171 3171 3169 3172 3171 3169 3168 3169 3168 3167 3164 3163 3161 3159 3158 3159 3161 3162 3162 3161 3162 3163 3166 3168 3169 3170 3173 3175 3176 3174 3174 3175 3175 3175 3173 3171 3169 3169 3169 3170 3169 3168 3168
3168 3169 3169 3169 3170 3169 3167 3163 3163 3162 3161 3159 3159 3157 3157 3156 3157 3158 3159 3159 3160 3160 3161 3161 3164 3166 3166 3168 3169 3170 3170 3170 3170 3169 3168 3168 3167 3165 3165 3166 3166 3164 3164 3164
3168 3168 3168 3167 3166 3165 3163 3161 3160 3159 3157 3154 3151 3150 3150 3151 3152 3154 3154 3155 3156 3156 3157 3158 3159 3161 3164 3164 3164 3164 3165 3166 3168 3166 3165 3163 3162 3162 3162 3162 3161 3161 3161 3161
3166 3165 3164 3162 3162 3160 3158 3158 3156 3153 3151 3149 3147 3146 3145 3145 3148 3150 3152 3152 3153 3153 3152 3153 3155 3158 3160 3161 3160 3160 3161 3162 3163 3162 3162 3161 3160 3160 3159 3159 3159 3158 3158 3158
3162 3161 3159 3156 3157 3155 3155 3155 3152 3149 3146 3144 3142 3140 3141 3145 3147 3147 3149 3150 3149 3150 3149 3150 3152 3155 3158 3159 3159 3158 3158 3158 3159 3159 3158 3158 3157 3157 3157 3156 3156 3156 3155 3154
3156 3156 3155 3152 3151 3151 3152 3150 3148 3146 3142 3141 3140 3139 3142 3143 3145 3145 3146 3147 3146 3146 3145 3146 3148 3153 3156 3156 3156 3154 3155 3157 3157 3156 3155 3154 3153 3154 3153 3151 3151 3151 3151 3150
3152 3152 3151 3149 3148 3148 3148 3147 3146 3144 3142 3141 3140 3143 3143 3142 3140 3140 3139 3138 3139 3140 3142 3145 3146 3149 3151 3152 3152 3152 3153 3153 3153 3152 3151 3150 3149 3148 3147 3147 3148 3148 3148 3148
3150 3149 3149 3147 3146 3145 3143 3144 3142 3140 3139 3138 3139 3139 3140 3143 3140 3136 3134 3135 3138 3140 3141 3144 3145 3146 3148 3148 3148 3149 3149 3150 3150 3149 3145 3143 3143 3144 3144 3145 3145 3145 3145 3144
3147 3146 3144 3142 3142 3142 3140 3140 3139 3137 3140 3134 3134 3134 3136 3137 3138 3138 3135 3134 3135 3138 3139 3141 3143 3144 3144 3146 3145 3145 3146 3146 3146 3144 3142 3141 3141 3141 3141 3141 3142 3142 3142 3141
3145 3144 3142 3140 3140 3140 3137 3138 3137 3131 3129 3134 3131 3131 3130 3133 3135 3136 3134 3133 3135 3136 3136 3137 3138 3140 3142 3143 3143 3142 3142 3143 3143 3142 3141 3140 3139 3139 3138 3138 3138 3138 3138 3137
3143 3142 3140 3140 3138 3136 3134 3132 3130 3128 3130 3128 3124 3130 3130 3131 3132 3132 3131 3131 3131 3133 3134 3137 3137 3139 3139 3140 3140 3140 3141 3141 3140 3139 3138 3137 3137 3136 3135 3135 3135 3134 3134 3133
3139 3137 3135 3134 3134 3132 3129 3127 3127 3120 3124 3124 3121 3130 3128 3125 3128 3128 3129 3129 3130 3131 3131 3132 3134 3136 3137 3138 3139 3140 3139 3139 3138 3137 3136 3135 3134 3134 3132 3132 3132 3131 3131 3131
3133 3132 3130 3127 3128 3128 3125 3124 3123 3122 3122 3123 3125 3126 3125 3124 3124 3126 3127 3129 3130 3130 3130 3130 3132 3133 3135 3136 3136 3136 3136 3136 3136 3135 3133 3133 3132 3131 3130 3129 3129 3128 3128 3128
3127 3126 3126 3124 3123 3122 3121 3120 3119 3120 3121 3125 3123 3124 3125 3125 3125 3125 3127 3127 3127 3127 3126 3127 3129 3130 3131 3132 3132 3131 3131 3132 3132 3132 3130 3129 3129 3128 3127 3127 3126 3125 3124 3124